Time,TemperatureF,DewpointF,PressureIn,WindDirection,WindDirectionDegrees,WindSpeedMPH,WindSpeedGustMPH,Humidity,HourlyPrecipIn,Conditions,Clouds,dailyrainin,SoftwareType,DateUTC
2013-07-26 00:01:00,63.9,58.0,29.93,SE,125,8.0,-999.0,82,-99.99,,,0.04,weatherlink.com 1.10,2013-07-26 04:01:00,
2013-07-26 00:16:00,63.5,58.0,29.93,SE,140,8.0,-999.0,83,-99.99,,,0.04,weatherlink.com 1.10,2013-07-26 04:16:00,
2013-07-26 00:31:00,63.1,59.0,29.93,ESE,113,4.0,-999.0,86,-99.99,,,0.00,weatherlink.com 1.10,2013-07-26 04:31:00,
2013-07-26 01:01:00,62.7,59.0,29.92,NE,50,7.0,-999.0,88,-99.99,,,0.01,weatherlink.com 1.10,2013-07-26 05:01:00,
2013-07-26 01:16:00,62.6,59.0,29.92,East,95,6.0,-999.0,89,-99.99,,,0.02,weatherlink.com 1.10,2013-07-26 05:16:00,
2013-07-26 01:31:00,62.4,59.0,29.91,ENE,75,3.0,-999.0,89,-99.99,,,0.03,weatherlink.com 1.10,2013-07-26 05:31:00,
2013-07-26 01:46:00,62.3,59.0,29.91,ENE,67,10.0,-999.0,90,-99.99,,,0.05,weatherlink.com 1.10,2013-07-26 05:46:00,
2013-07-26 02:01:00,62.3,59.0,29.91,ESE,112,5.0,-999.0,90,-99.99,,,0.09,weatherlink.com 1.10,2013-07-26 06:01:00,
2013-07-26 02:16:00,62.3,60.0,29.90,ENE,65,12.0,-999.0,91,-99.99,,,0.11,weatherlink.com 1.10,2013-07-26 06:16:00,
2013-07-26 02:31:00,62.3,60.0,29.90,East,91,5.0,-999.0,91,-99.99,,,0.12,weatherlink.com 1.10,2013-07-26 06:31:00,
2013-07-26 02:46:00,62.3,60.0,29.89,ENE,72,6.0,-999.0,91,-99.99,,,0.12,weatherlink.com 1.10,2013-07-26 06:46:00,
2013-07-26 03:01:00,62.3,60.0,29.89,East,99,2.0,-999.0,91,-99.99,,,0.12,weatherlink.com 1.10,2013-07-26 07:01:00,
2013-07-26 03:16:00,62.4,60.0,29.89,ESE,110,10.0,-999.0,92,-99.99,,,0.12,weatherlink.com 1.10,2013-07-26 07:16:00,
2013-07-26 03:31:00,62.6,60.0,29.88,East,84,6.0,-999.0,92,-99.99,,,0.12,weatherlink.com 1.10,2013-07-26 07:31:00,
2013-07-26 03:46:00,62.7,60.0,29.88,NE,50,4.0,-999.0,92,-99.99,,,0.13,weatherlink.com 1.10,2013-07-26 07:46:00,
2013-07-26 04:01:00,62.7,60.0,29.88,East,95,5.0,-999.0,92,-99.99,,,0.13,weatherlink.com 1.10,2013-07-26 08:01:00,
2013-07-26 04:16:00,62.7,60.0,29.88,ESE,113,0.0,-999.0,92,-99.99,,,0.14,weatherlink.com 1.10,2013-07-26 08:16:00,
2013-07-26 04:32:00,62.9,61.0,29.87,ENE,77,7.0,-999.0,92,-99.99,,,0.15,weatherlink.com 1.10,2013-07-26 08:32:00,
2013-07-26 04:47:00,62.9,61.0,29.87,East,82,12.0,-999.0,92,-99.99,,,0.16,weatherlink.com 1.10,2013-07-26 08:47:00,
2013-07-26 05:02:00,63.1,61.0,29.86,East,89,5.0,-999.0,92,-99.99,,,0.16,weatherlink.com 1.10,2013-07-26 09:02:00,
2013-07-26 05:17:00,63.2,61.0,29.86,ESE,106,4.0,-999.0,93,-99.99,,,0.17,weatherlink.com 1.10,2013-07-26 09:17:00,
2013-07-26 05:32:00,63.5,62.0,29.86,ENE,62,8.0,-999.0,93,-99.99,,,0.17,weatherlink.com 1.10,2013-07-26 09:32:00,
2013-07-26 05:47:00,63.7,62.0,29.86,ENE,62,10.0,-999.0,93,-99.99,,,0.18,weatherlink.com 1.10,2013-07-26 09:47:00,
2013-07-26 06:02:00,63.7,62.0,29.86,East,79,10.0,-999.0,93,-99.99,,,0.19,weatherlink.com 1.10,2013-07-26 10:02:00,
2013-07-26 06:17:00,63.7,62.0,29.85,ESE,110,8.0,-999.0,93,-99.99,,,0.19,weatherlink.com 1.10,2013-07-26 10:17:00,
2013-07-26 06:32:00,63.5,62.0,29.86,ESE,103,9.0,-999.0,93,-99.99,,,0.22,weatherlink.com 1.10,2013-07-26 10:32:00,
2013-07-26 06:47:00,63.5,62.0,29.85,East,91,6.0,-999.0,93,-99.99,,,0.24,weatherlink.com 1.10,2013-07-26 10:47:00,
2013-07-26 07:02:00,63.5,62.0,29.84,ESE,119,3.0,-999.0,93,-99.99,,,0.25,weatherlink.com 1.10,2013-07-26 11:02:00,
2013-07-26 07:17:00,63.5,62.0,29.84,ENE,75,5.0,-999.0,93,-99.99,,,0.28,weatherlink.com 1.10,2013-07-26 11:17:00,
2013-07-26 07:32:00,63.5,62.0,29.84,ENE,67,11.0,-999.0,93,-99.99,,,0.29,weatherlink.com 1.10,2013-07-26 11:32:00,
2013-07-26 07:47:00,63.5,62.0,29.84,East,94,11.0,-999.0,93,-99.99,,,0.30,weatherlink.com 1.10,2013-07-26 11:47:00,
2013-07-26 08:02:00,63.5,62.0,29.83,NE,54,11.0,-999.0,93,-99.99,,,0.30,weatherlink.com 1.10,2013-07-26 12:02:00,
2013-07-26 08:17:00,63.4,61.0,29.84,NE,54,2.0,-999.0,93,-99.99,,,0.30,weatherlink.com 1.10,2013-07-26 12:17:00,
2013-07-26 08:32:00,63.4,61.0,29.83,NE,54,4.0,-999.0,93,-99.99,,,0.31,weatherlink.com 1.10,2013-07-26 12:32:00,
2013-07-26 08:47:00,63.4,61.0,29.83,East,86,8.0,-999.0,93,-99.99,,,0.32,weatherlink.com 1.10,2013-07-26 12:47:00,
2013-07-26 09:02:00,63.4,61.0,29.83,ENE,57,3.0,-999.0,93,-99.99,,,0.33,weatherlink.com 1.10,2013-07-26 13:02:00,
2013-07-26 09:17:00,63.2,61.0,29.84,ENE,68,3.0,-999.0,93,-99.99,,,0.33,weatherlink.com 1.10,2013-07-26 13:17:00,
2013-07-26 09:32:00,63.2,61.0,29.83,NE,44,7.0,-999.0,93,-99.99,,,0.35,weatherlink.com 1.10,2013-07-26 13:32:00,
2013-07-26 09:47:00,63.2,61.0,29.83,NNE,26,11.0,-999.0,93,-99.99,,,0.36,weatherlink.com 1.10,2013-07-26 13:47:00,
2013-07-26 10:02:00,63.2,61.0,29.83,NE,46,7.0,-999.0,93,-99.99,,,0.36,weatherlink.com 1.10,2013-07-26 14:02:00,
2013-07-26 10:17:00,63.4,61.0,29.83,NE,51,4.0,-999.0,93,-99.99,,,0.37,weatherlink.com 1.10,2013-07-26 14:17:00,
2013-07-26 10:32:00,63.5,62.0,29.82,NE,54,10.0,-999.0,93,-99.99,,,0.38,weatherlink.com 1.10,2013-07-26 14:32:00,
2013-07-26 10:47:00,63.5,62.0,29.82,ENE,58,7.0,-999.0,93,-99.99,,,0.38,weatherlink.com 1.10,2013-07-26 14:47:00,
2013-07-26 11:02:00,64.0,62.0,29.82,NE,54,5.0,-999.0,93,-99.99,,,0.39,weatherlink.com 1.10,2013-07-26 15:02:00,
2013-07-26 11:17:00,64.0,62.0,29.82,NE,43,11.0,-999.0,93,-99.99,,,0.39,weatherlink.com 1.10,2013-07-26 15:17:00,
2013-07-26 11:32:00,64.2,62.0,29.82,ENE,75,10.0,-999.0,93,-99.99,,,0.39,weatherlink.com 1.10,2013-07-26 15:32:00,
2013-07-26 11:47:00,64.3,62.0,29.82,ENE,65,16.0,-999.0,93,-99.99,,,0.39,weatherlink.com 1.10,2013-07-26 15:47:00,
2013-07-26 12:02:00,64.7,63.0,29.82,NNE,17,9.0,-999.0,93,-99.99,,,0.39,weatherlink.com 1.10,2013-07-26 16:02:00,
2013-07-26 12:17:00,64.7,62.0,29.82,NE,54,5.0,-999.0,92,-99.99,,,0.39,weatherlink.com 1.10,2013-07-26 16:17:00,
2013-07-26 12:32:00,64.5,62.0,29.82,NE,43,5.0,-999.0,92,-99.99,,,0.40,weatherlink.com 1.10,2013-07-26 16:32:00,
2013-07-26 12:47:00,64.5,62.0,29.81,NNE,33,8.0,-999.0,92,-99.99,,,0.40,weatherlink.com 1.10,2013-07-26 16:47:00,
2013-07-26 13:02:00,64.7,62.0,29.81,ENE,64,8.0,-999.0,92,-99.99,,,0.40,weatherlink.com 1.10,2013-07-26 17:02:00,
2013-07-26 13:17:00,64.8,63.0,29.81,NE,53,5.0,-999.0,92,-99.99,,,0.40,weatherlink.com 1.10,2013-07-26 17:17:00,
2013-07-26 13:33:00,64.8,63.0,29.81,NNE,31,7.0,-999.0,92,-99.99,,,0.40,weatherlink.com 1.10,2013-07-26 17:33:00,
2013-07-26 13:48:00,65.2,63.0,29.81,NE,54,5.0,-999.0,92,-99.99,,,0.40,weatherlink.com 1.10,2013-07-26 17:48:00,
2013-07-26 14:03:00,65.2,63.0,29.81,NE,54,5.0,-999.0,92,-99.99,,,0.40,weatherlink.com 1.10,2013-07-26 18:03:00,
2013-07-26 14:18:00,65.3,63.0,29.81,ENE,58,2.0,-999.0,92,-99.99,,,0.40,weatherlink.com 1.10,2013-07-26 18:18:00,
2013-07-26 14:33:00,65.6,64.0,29.82,ENE,57,2.0,-999.0,93,-99.99,,,0.40,weatherlink.com 1.10,2013-07-26 18:33:00,
2013-07-26 14:48:00,65.8,64.0,29.82,NE,54,0.0,-999.0,93,-99.99,,,0.42,weatherlink.com 1.10,2013-07-26 18:48:00,
2013-07-26 15:03:00,66.0,64.0,29.82,NNE,17,4.0,-999.0,93,-99.99,,,0.44,weatherlink.com 1.10,2013-07-26 19:03:00,
2013-07-26 15:18:00,66.0,64.0,29.83,NNE,14,1.0,-999.0,93,-99.99,,,0.45,weatherlink.com 1.10,2013-07-26 19:18:00,
2013-07-26 15:33:00,66.3,64.0,29.82,North,0,6.0,-999.0,93,-99.99,,,0.47,weatherlink.com 1.10,2013-07-26 19:33:00,
2013-07-26 15:48:00,66.6,65.0,29.83,NNE,27,1.0,-999.0,93,-99.99,,,0.49,weatherlink.com 1.10,2013-07-26 19:48:00,
2013-07-26 16:03:00,66.6,65.0,29.82,North,349,6.0,-999.0,93,-99.99,,,0.50,weatherlink.com 1.10,2013-07-26 20:03:00,
2013-07-26 16:18:00,67.1,65.0,29.82,North,353,0.0,-999.0,93,-99.99,,,0.50,weatherlink.com 1.10,2013-07-26 20:18:00,
2013-07-26 16:33:00,66.9,65.0,29.83,NNE,12,2.0,-999.0,93,-99.99,,,0.50,weatherlink.com 1.10,2013-07-26 20:33:00,
2013-07-26 16:48:00,67.1,65.0,29.84,North,356,0.0,-999.0,93,-99.99,,,0.50,weatherlink.com 1.10,2013-07-26 20:48:00,
2013-07-26 17:03:00,66.9,65.0,29.84,North,2,2.0,-999.0,93,-99.99,,,0.50,weatherlink.com 1.10,2013-07-26 21:03:00,
2013-07-26 17:18:00,67.1,65.0,29.84,NNE,26,3.0,-999.0,93,-99.99,,,0.51,weatherlink.com 1.10,2013-07-26 21:18:00,
2013-07-26 17:33:00,67.1,65.0,29.86,North,7,2.0,-999.0,93,-99.99,,,0.53,weatherlink.com 1.10,2013-07-26 21:33:00,
2013-07-26 17:48:00,67.1,65.0,29.86,NE,47,0.0,-999.0,93,-99.99,,,0.57,weatherlink.com 1.10,2013-07-26 21:48:00,
2013-07-26 18:03:00,66.9,65.0,29.87,NE,41,0.0,-999.0,93,-99.99,,,0.63,weatherlink.com 1.10,2013-07-26 22:03:00,
2013-07-26 18:18:00,66.8,65.0,29.87,NE,47,3.0,-999.0,93,-99.99,,,0.67,weatherlink.com 1.10,2013-07-26 22:18:00,
2013-07-26 18:33:00,66.8,65.0,29.88,North,350,0.0,-999.0,93,-99.99,,,0.79,weatherlink.com 1.10,2013-07-26 22:33:00,
2013-07-26 18:49:00,66.8,65.0,29.87,ENE,58,0.0,-999.0,94,-99.99,,,0.84,weatherlink.com 1.10,2013-07-26 22:49:00,
2013-07-26 19:04:00,66.9,65.0,29.87,ENE,57,0.0,-999.0,94,-99.99,,,0.84,weatherlink.com 1.10,2013-07-26 23:04:00,
2013-07-26 19:19:00,66.9,65.0,29.88,ENE,57,0.0,-999.0,94,-99.99,,,0.84,weatherlink.com 1.10,2013-07-26 23:19:00,
2013-07-26 19:34:00,66.9,65.0,29.88,ENE,57,0.0,-999.0,94,-99.99,,,0.84,weatherlink.com 1.10,2013-07-26 23:34:00,
2013-07-26 19:49:00,66.8,65.0,29.89,ENE,57,0.0,-999.0,94,-99.99,,,0.85,weatherlink.com 1.10,2013-07-26 23:49:00,
2013-07-26 20:04:00,66.9,65.0,29.89,East,85,0.0,-999.0,94,-99.99,,,0.86,weatherlink.com 1.10,2013-07-27 00:04:00,
2013-07-26 20:19:00,66.8,65.0,29.88,East,85,0.0,-999.0,94,-99.99,,,0.86,weatherlink.com 1.10,2013-07-27 00:19:00,
2013-07-26 20:34:00,66.8,65.0,29.89,East,84,0.0,-999.0,94,-99.99,,,0.86,weatherlink.com 1.10,2013-07-27 00:34:00,
2013-07-26 20:49:00,66.6,65.0,29.89,East,84,0.0,-999.0,94,-99.99,,,0.86,weatherlink.com 1.10,2013-07-27 00:49:00,
2013-07-26 21:04:00,66.4,65.0,29.90,ENE,77,0.0,-999.0,94,-99.99,,,0.86,weatherlink.com 1.10,2013-07-27 01:04:00,
2013-07-26 21:19:00,66.3,65.0,29.90,West,267,3.0,-999.0,94,-99.99,,,0.86,weatherlink.com 1.10,2013-07-27 01:19:00,
2013-07-26 21:34:00,66.1,64.0,29.90,North,359,2.0,-999.0,94,-99.99,,,0.86,weatherlink.com 1.10,2013-07-27 01:34:00,
2013-07-26 21:49:00,65.8,64.0,29.90,WNW,290,0.0,-999.0,94,-99.99,,,0.87,weatherlink.com 1.10,2013-07-27 01:49:00,
2013-07-26 22:04:00,65.5,64.0,29.91,WNW,291,0.0,-999.0,94,-99.99,,,0.87,weatherlink.com 1.10,2013-07-27 02:04:00,
2013-07-26 22:19:00,65.3,64.0,29.91,WNW,294,0.0,-999.0,94,-99.99,,,0.87,weatherlink.com 1.10,2013-07-27 02:19:00,
2013-07-26 22:34:00,65.2,64.0,29.91,North,353,0.0,-999.0,94,-99.99,,,0.88,weatherlink.com 1.10,2013-07-27 02:34:00,
2013-07-26 22:49:00,64.8,63.0,29.91,North,353,0.0,-999.0,94,-99.99,,,0.88,weatherlink.com 1.10,2013-07-27 02:49:00,
2013-07-26 23:04:00,64.7,63.0,29.92,North,353,0.0,-999.0,94,-99.99,,,0.88,weatherlink.com 1.10,2013-07-27 03:04:00,
2013-07-26 23:19:00,64.5,63.0,29.92,North,353,0.0,-999.0,94,-99.99,,,0.88,weatherlink.com 1.10,2013-07-27 03:19:00,
2013-07-26 23:34:00,64.3,63.0,29.92,North,353,0.0,-999.0,94,-99.99,,,0.88,weatherlink.com 1.10,2013-07-27 03:34:00,
2013-07-26 23:49:00,63.9,62.0,29.92,NW,321,0.0,-999.0,94,-99.99,,,0.88,weatherlink.com 1.10,2013-07-27 03:49:00,